Regional Weather Roundup
Issued by NWS Newport/Morehead, NC

Current Version | Previous Version | Text Only | Print | Product List | Glossary On
Versions: 1 2 3 4 5 6 7 8 9 10 11 12 13 14 15 16 17 18 19 20 21 22 23 24 25 26 27 28 29 30 31 32 33 34 35 36 37 38 39 40 41 42 43 44 45 46 47 48 49 50
000 ASUS42 KMHX 281313 RWRMHX WEATHER ROUNDUP FOR EASTERN NORTH CAROLINA NATIONAL WEATHER SERVICE NEWPORT/MOREHEAD CITY NC 900 AM EDT WED SEP 28 2016 NOTE: "FAIR" INDICATES FEW OR NO CLOUDS BELOW 12,000 FEET WITH NO SIGNIFICANT WEATHER AND/OR OBSTRUCTIONS TO VISIBILITY NCZ015>017-031-032-045>047-102-103-281400- NORTH COAST CITY SKY/WX TMP DP RH WIND PRES REMARKS EDENTON MOSUNNY 74 74 100 SE3 29.96R ELIZABETH CITY MOSUNNY 74 70 87 CALM 29.97R KITTY HAWK MOSUNNY 75 75 100 CALM 29.95R MANTEO MOSUNNY 74 73 95 NE6 29.96R $$ NCZ045>047-081-094-103-104-281400- CENTRAL COAST CITY SKY/WX TMP DP RH WIND PRES REMARKS FRISCO MOSUNNY 78 73 84 VRB5 29.95R $$ NCZ095-097-098-100-101-281400- SOUTHERN COAST CITY SKY/WX TMP DP RH WIND PRES REMARKS BEAUFORT SUNNY 78 68 71 CALM 29.96R CEDAR ISLAND NOT AVBL JACKSONVILLE MOSUNNY 75 71 87 CALM 29.95S PINEY ISLAND SUNNY N/A N/A N/A CALM 29.95R WILMINGTON MOSUNNY 76 71 85 CALM 29.96R $$ NCZ011>013-027>030-043-044-078>080-089-090>093-098-281400- COASTAL PLAIN CITY SKY/WX TMP DP RH WIND PRES REMARKS AHOSKIE PTSUNNY 69 68 96 S3 29.96R CLINTON SUNNY 71 71 100 CALM 29.95F ELIZABETHTOWN SUNNY 71 71 100 SE5 29.95F GOLDSBORO MOSUNNY 73 73 100 S3 29.94R GREENVILLE MOSUNNY 73 72 94 S3 29.97R HAVELOCK MOSUNNY 75 72 88 SW3 29.97R KENANSVILLE SUNNY 70 70 100 SE3 29.96R KINSTON SUNNY 75 72 88 S6 29.96R NEW BERN SUNNY 75 70 84 CALM 29.97S RICHLANDS SUNNY 74 71 91 S5 29.97R ROCKY MOUNT MOSUNNY 72 71 97 CALM 29.95R WASHINGTON SUNNY 71 69 93 CALM 29.96R WHITEVILLE PTSUNNY 74 71 89 S5 29.95S $$ AMZ130-135-150-152-154-156-158-170-250-252-270-ANZ085-086-088-633-658-670-281400- MARINE OBSERVATIONS STATION/POSITION TIME TEMP WIND PRES WAVE SWELL AIR SEA DIR/SP/G HT/PER HT/PER (UTC) (F) (DEG/KT/KT) (MB) (FT/S) (FT/S) CHESAPEAKE LIGHT NOT AVBL 64 E VA BEACH 1250 74 74 20/ 12/ 14 1014.1 5/ 8 3/ 8 DUCK 1248 74 76 40/ 6/ 7 1013.9 2 E DUCK 1241 76 N/A 4/ 8 2/12 OREGON INLET 1248 75 76 20/ 8/ 9 1014.2 13E OREGON INLT 1300 76 N/A 4/ 8 3/ 8 HATTERAS CG 1248 75 76 10/ 8/ 9 1013.8 DIAMOND BUOY 1250 76 84 360/ 10/ 12 1013.9 4/ 7 3/ 7 CAPE LOOKOUT 1200 75 50/ 1/ 2 1013.6 BEAUFORT LAB 1248 79 76 CALM / 1 1013.7 30 SE NEW RVR IN 1208 80 83 360/ 2/ 2 1014.1 30 SE NEW RVR IN 1255 83 N/A 3/ 7 2/12 27 SE WRIGHTSVLE 1208 80 81 CALM / 2 1014.3 5 SE WRIGHTSVLE 1208 80 80 200/ 2/ 4 1015.3 225 S CAPE HAT 1250 82 83 220/ 8/ 10 1014.9 4/11 3/11 41 SE CHARLESTON 1250 81 82 230/ 4/ 6 1014.0 3/11 3/11 $$

USA.gov is the U.S. government's official web portal to all federal, state and local government web resources and services.